Time,TemperatureF,DewpointF,PressureIn,WindDirection,WindDirectionDegrees,WindSpeedMPH,WindSpeedGustMPH,Humidity,HourlyPrecipIn,Conditions,Clouds,dailyrainin,SoftwareType,DateUTC
2013-06-23 00:01:00,56.5,50.4,29.76,West,270,2.2,2.2,80,0.00,,,0.00,VWS V14.01,2013-06-23 07:01:00,
2013-06-23 00:06:00,56.5,50.7,29.76,ESE,112,2.7,3.8,81,0.00,,,0.00,VWS V14.01,2013-06-23 07:06:00,
2013-06-23 00:11:00,56.3,50.5,29.76,SSW,202,3.1,3.1,81,0.00,,,0.00,VWS V14.01,2013-06-23 07:11:00,
2013-06-23 00:17:00,56.3,50.5,29.76,South,180,1.3,4.0,81,0.00,,,0.00,VWS V14.01,2013-06-23 07:17:00,
2013-06-23 00:22:00,56.3,50.9,29.76,SSW,202,4.9,9.6,82,0.00,,,0.00,VWS V14.01,2013-06-23 07:22:00,
2013-06-23 00:27:00,56.1,50.7,29.76,SW,225,2.9,5.4,82,0.00,,,0.00,VWS V14.01,2013-06-23 07:27:00,
2013-06-23 00:32:00,55.9,50.9,29.76,SSW,202,3.6,4.7,83,0.00,,,0.00,VWS V14.01,2013-06-23 07:32:00,
2013-06-23 00:37:00,55.9,50.9,29.76,West,270,4.0,4.0,83,0.00,,,0.00,VWS V14.01,2013-06-23 07:37:00,
2013-06-23 00:43:00,55.8,50.7,29.76,SSW,202,3.6,6.5,83,0.00,,,0.00,VWS V14.01,2013-06-23 07:43:00,
2013-06-23 00:48:00,55.6,50.8,29.76,West,270,4.0,4.0,84,0.00,,,0.00,VWS V14.01,2013-06-23 07:48:00,
2013-06-23 00:53:00,55.6,50.8,29.76,SSW,202,2.0,3.1,84,0.00,,,0.00,VWS V14.01,2013-06-23 07:53:00,
2013-06-23 00:58:00,55.6,51.2,29.76,WNW,292,2.9,5.8,85,0.00,,,0.00,VWS V14.01,2013-06-23 07:58:00,
2013-06-23 01:03:00,55.6,51.2,29.76,SSW,202,4.3,4.3,85,0.00,,,0.00,VWS V14.01,2013-06-23 08:03:00,
2013-06-23 01:08:00,55.4,51.0,29.76,SSW,202,3.6,3.6,85,0.00,,,0.00,VWS V14.01,2013-06-23 08:08:00,
2013-06-23 01:13:00,55.2,51.1,29.76,SW,225,3.1,3.1,86,0.00,,,0.00,VWS V14.01,2013-06-23 08:13:00,
2013-06-23 01:18:00,55.2,51.1,29.76,East,90,1.6,2.0,86,0.00,,,0.00,VWS V14.01,2013-06-23 08:18:00,
2013-06-23 01:23:00,55.2,51.1,29.76,SSW,202,2.7,6.5,86,0.00,,,0.00,VWS V14.01,2013-06-23 08:23:00,
2013-06-23 01:28:00,55.2,51.1,29.76,SSW,202,6.3,8.7,86,0.00,,,0.00,VWS V14.01,2013-06-23 08:28:00,
2013-06-23 01:33:00,55.0,51.2,29.76,ESE,112,2.5,4.0,87,0.00,,,0.00,VWS V14.01,2013-06-23 08:33:00,
2013-06-23 01:39:00,54.9,51.1,29.76,NNE,22,2.5,7.2,87,0.00,,,0.00,VWS V14.01,2013-06-23 08:39:00,
2013-06-23 01:44:00,54.9,51.1,29.76,WSW,248,1.6,7.4,87,0.00,,,0.00,VWS V14.01,2013-06-23 08:44:00,
2013-06-23 01:49:00,54.9,51.1,29.76,SW,225,6.0,7.4,87,0.00,,,0.00,VWS V14.01,2013-06-23 08:49:00,
2013-06-23 01:55:00,54.9,51.4,29.76,SE,135,2.0,3.4,88,0.00,,,0.00,VWS V14.01,2013-06-23 08:55:00,
2013-06-23 02:00:00,54.9,51.4,29.76,East,90,4.0,4.0,88,0.00,,,0.00,VWS V14.01,2013-06-23 09:00:00,
2013-06-23 02:05:00,54.9,51.7,29.76,West,270,7.2,7.2,89,0.00,,,0.00,VWS V14.01,2013-06-23 09:05:00,
2013-06-23 02:10:00,54.9,51.7,29.76,SSE,158,3.4,6.3,89,0.00,,,0.00,VWS V14.01,2013-06-23 09:10:00,
2013-06-23 02:15:00,54.9,51.7,29.76,NW,315,3.8,4.9,89,0.00,,,0.00,VWS V14.01,2013-06-23 09:15:00,
2013-06-23 02:20:00,54.9,52.0,29.76,SSW,202,4.9,10.3,90,0.00,,,0.00,VWS V14.01,2013-06-23 09:20:00,
2013-06-23 02:26:00,54.7,51.8,29.76,SSW,202,2.7,2.7,90,0.00,,,0.00,VWS V14.01,2013-06-23 09:26:00,
2013-06-23 02:31:00,54.9,52.0,29.76,South,180,1.6,3.1,90,0.00,,,0.00,VWS V14.01,2013-06-23 09:31:00,
2013-06-23 02:36:00,54.7,51.8,29.76,NNE,22,2.7,7.2,90,0.00,,,0.00,VWS V14.01,2013-06-23 09:36:00,
2013-06-23 02:41:00,54.7,51.8,29.76,WSW,248,2.0,4.3,90,0.00,,,0.00,VWS V14.01,2013-06-23 09:41:00,
2013-06-23 02:46:00,54.7,52.1,29.76,NNW,338,3.8,6.0,91,0.00,,,0.00,VWS V14.01,2013-06-23 09:46:00,
2013-06-23 02:51:00,54.7,52.1,29.76,WNW,292,4.3,4.3,91,0.00,,,0.00,VWS V14.01,2013-06-23 09:51:00,
2013-06-23 02:56:00,54.9,52.3,29.76,ESE,112,6.5,7.2,91,0.00,,,0.00,VWS V14.01,2013-06-23 09:56:00,
2013-06-23 03:01:00,54.9,52.3,29.76,SE,135,6.5,6.5,91,0.00,,,0.00,VWS V14.01,2013-06-23 10:01:00,
2013-06-23 03:07:00,54.9,52.3,29.76,SE,135,2.7,5.4,91,0.00,,,0.00,VWS V14.01,2013-06-23 10:07:00,
2013-06-23 03:12:00,54.9,52.3,29.76,East,90,4.3,4.3,91,0.00,,,0.00,VWS V14.01,2013-06-23 10:12:00,
2013-06-23 03:17:00,54.9,52.3,29.76,ENE,68,3.1,3.1,91,0.00,,,0.00,VWS V14.01,2013-06-23 10:17:00,
2013-06-23 03:22:00,55.0,52.5,29.74,SSE,158,1.6,2.0,91,0.00,,,0.00,VWS V14.01,2013-06-23 10:22:00,
2013-06-23 03:27:00,55.2,52.6,29.74,SSW,202,3.4,4.7,91,0.00,,,0.00,VWS V14.01,2013-06-23 10:27:00,
2013-06-23 03:32:00,55.0,52.5,29.74,SW,225,2.9,3.1,91,0.00,,,0.00,VWS V14.01,2013-06-23 10:32:00,
2013-06-23 03:37:00,55.2,52.6,29.74,North,0,2.2,3.8,91,0.00,,,0.00,VWS V14.01,2013-06-23 10:37:00,
2013-06-23 03:43:00,55.2,52.6,29.74,NNE,22,1.6,2.9,91,0.00,,,0.00,VWS V14.01,2013-06-23 10:43:00,
2013-06-23 03:48:00,55.4,52.8,29.74,SSE,158,2.7,3.4,91,0.00,,,0.00,VWS V14.01,2013-06-23 10:48:00,
2013-06-23 03:53:00,55.4,52.8,29.74,SW,225,5.6,5.6,91,0.00,,,0.00,VWS V14.01,2013-06-23 10:53:00,
2013-06-23 03:58:00,55.4,52.8,29.74,NE,45,2.0,3.4,91,0.00,,,0.00,VWS V14.01,2013-06-23 10:58:00,
2013-06-23 04:03:00,55.6,53.0,29.74,WSW,248,3.4,3.4,91,0.00,,,0.00,VWS V14.01,2013-06-23 11:03:00,
2013-06-23 04:08:00,55.6,53.0,29.74,ENE,68,2.5,2.9,91,0.00,,,0.00,VWS V14.01,2013-06-23 11:08:00,
2013-06-23 04:13:00,55.8,53.2,29.74,WNW,292,2.9,4.0,91,0.00,,,0.00,VWS V14.01,2013-06-23 11:13:00,
2013-06-23 04:18:00,55.9,53.4,29.76,NNE,22,3.4,3.4,91,0.00,,,0.00,VWS V14.01,2013-06-23 11:18:00,
2013-06-23 04:24:00,55.9,53.4,29.76,South,180,2.5,3.6,91,0.00,,,0.00,VWS V14.01,2013-06-23 11:24:00,
2013-06-23 04:29:00,56.1,53.5,29.76,NNE,22,1.1,2.5,91,0.00,,,0.00,VWS V14.01,2013-06-23 11:29:00,
2013-06-23 04:34:00,56.1,53.5,29.76,East,90,4.0,4.0,91,0.00,,,0.00,VWS V14.01,2013-06-23 11:34:00,
2013-06-23 04:39:00,56.1,53.5,29.76,SW,225,2.9,2.9,91,0.00,,,0.00,VWS V14.01,2013-06-23 11:39:00,
2013-06-23 04:44:00,56.1,53.2,29.76,ENE,68,2.9,3.4,90,0.00,,,0.00,VWS V14.01,2013-06-23 11:44:00,
2013-06-23 04:49:00,56.3,53.4,29.76,WNW,292,3.1,3.6,90,0.00,,,0.00,VWS V14.01,2013-06-23 11:49:00,
2013-06-23 04:55:00,56.3,53.4,29.76,ENE,68,3.6,7.8,90,0.00,,,0.00,VWS V14.01,2013-06-23 11:55:00,
2013-06-23 05:00:00,56.3,53.4,29.76,North,0,2.7,3.6,90,0.00,,,0.00,VWS V14.01,2013-06-23 12:00:00,
2013-06-23 05:05:00,56.5,53.6,29.74,West,270,1.3,1.3,90,0.00,,,0.00,VWS V14.01,2013-06-23 12:05:00,
2013-06-23 05:10:00,56.5,53.6,29.74,NNE,22,3.4,4.3,90,0.00,,,0.00,VWS V14.01,2013-06-23 12:10:00,
2013-06-23 05:15:00,56.5,53.6,29.74,NNW,338,3.4,3.6,90,0.00,,,0.00,VWS V14.01,2013-06-23 12:15:00,
2013-06-23 05:20:00,56.5,53.6,29.74,NE,45,1.3,3.4,90,0.00,,,0.00,VWS V14.01,2013-06-23 12:20:00,
2013-06-23 05:25:00,56.5,53.6,29.74,WSW,248,4.3,4.3,90,0.00,,,0.00,VWS V14.01,2013-06-23 12:25:00,
2013-06-23 05:31:00,56.7,53.8,29.74,SW,225,2.7,2.9,90,0.00,,,0.00,VWS V14.01,2013-06-23 12:31:00,
2013-06-23 05:36:00,56.7,53.8,29.74,SE,135,2.7,2.7,90,0.00,,,0.00,VWS V14.01,2013-06-23 12:36:00,
2013-06-23 05:41:00,56.7,53.8,29.74,WSW,248,3.6,3.6,90,0.00,,,0.00,VWS V14.01,2013-06-23 12:41:00,
2013-06-23 05:46:00,56.7,53.8,29.74,SSW,202,1.1,1.3,90,0.00,,,0.00,VWS V14.01,2013-06-23 12:46:00,
2013-06-23 05:51:00,56.7,53.8,29.74,WSW,248,5.4,5.4,90,0.00,,,0.00,VWS V14.01,2013-06-23 12:51:00,
2013-06-23 05:56:00,56.8,53.6,29.74,SSE,158,3.6,3.6,89,0.00,,,0.00,VWS V14.01,2013-06-23 12:56:00,
2013-06-23 06:02:00,56.8,53.6,29.74,West,270,3.1,3.1,89,0.00,,,0.00,VWS V14.01,2013-06-23 13:02:00,
2013-06-23 06:07:00,56.8,53.6,29.74,SW,225,3.6,3.6,89,0.00,,,0.00,VWS V14.01,2013-06-23 13:07:00,
2013-06-23 06:12:00,57.0,54.1,29.74,WSW,248,3.4,3.4,90,0.00,,,0.00,VWS V14.01,2013-06-23 13:12:00,
2013-06-23 06:17:00,57.2,54.0,29.74,NW,315,2.2,3.1,89,0.00,,,0.00,VWS V14.01,2013-06-23 13:17:00,
2013-06-23 06:22:00,57.2,54.0,29.74,NNE,22,2.9,6.5,89,0.00,,,0.00,VWS V14.01,2013-06-23 13:22:00,
2013-06-23 06:27:00,57.0,53.8,29.74,WNW,292,2.9,5.6,89,0.00,,,0.00,VWS V14.01,2013-06-23 13:27:00,
2013-06-23 06:32:00,57.0,53.8,29.76,East,90,2.5,2.9,89,0.00,,,0.00,VWS V14.01,2013-06-23 13:32:00,
2013-06-23 06:38:00,56.8,53.6,29.76,WNW,292,3.1,3.1,89,0.00,,,0.00,VWS V14.01,2013-06-23 13:38:00,
2013-06-23 06:43:00,57.0,53.8,29.76,SSE,158,2.5,4.3,89,0.00,,,0.00,VWS V14.01,2013-06-23 13:43:00,
2013-06-23 06:48:00,57.2,53.7,29.76,WSW,248,5.4,6.3,88,0.00,,,0.00,VWS V14.01,2013-06-23 13:48:00,
2013-06-23 06:53:00,57.2,53.7,29.76,WSW,248,3.8,5.8,88,0.00,,,0.00,VWS V14.01,2013-06-23 13:53:00,
2013-06-23 06:59:00,57.2,53.7,29.76,East,90,3.8,8.1,88,0.00,,,0.00,VWS V14.01,2013-06-23 13:59:00,
2013-06-23 07:04:00,57.0,53.5,29.76,WSW,248,2.5,2.7,88,0.00,,,0.00,VWS V14.01,2013-06-23 14:04:00,
2013-06-23 07:09:00,57.2,53.7,29.76,ENE,68,1.6,3.6,88,0.00,,,0.00,VWS V14.01,2013-06-23 14:09:00,
2013-06-23 07:14:00,57.2,53.7,29.76,West,270,4.3,6.0,88,0.00,,,0.00,VWS V14.01,2013-06-23 14:14:00,
2013-06-23 07:19:00,57.2,53.7,29.76,SSW,202,2.5,2.5,88,0.00,,,0.00,VWS V14.01,2013-06-23 14:19:00,
2013-06-23 07:24:00,57.0,53.5,29.76,NNE,22,2.7,2.7,88,0.00,,,0.00,VWS V14.01,2013-06-23 14:24:00,
2013-06-23 07:29:00,57.0,53.2,29.76,NW,315,1.1,2.0,87,0.00,,,0.00,VWS V14.01,2013-06-23 14:29:00,
2013-06-23 07:35:00,57.4,53.5,29.76,SSW,202,3.4,3.4,87,0.00,,,0.00,VWS V14.01,2013-06-23 14:35:00,
2013-06-23 07:40:00,57.4,53.5,29.76,SW,225,1.6,3.4,87,0.00,,,0.00,VWS V14.01,2013-06-23 14:40:00,
2013-06-23 07:45:00,57.2,53.4,29.76,WNW,292,2.0,6.0,87,0.00,,,0.00,VWS V14.01,2013-06-23 14:45:00,
2013-06-23 07:50:00,57.0,53.5,29.76,NW,315,1.3,4.0,88,0.00,,,0.00,VWS V14.01,2013-06-23 14:50:00,
2013-06-23 07:56:00,57.2,53.4,29.76,NNE,22,2.0,3.6,87,0.00,,,0.00,VWS V14.01,2013-06-23 14:56:00,
2013-06-23 08:01:00,57.4,53.9,29.76,SSW,202,3.8,5.8,88,0.00,,,0.00,VWS V14.01,2013-06-23 15:01:00,
2013-06-23 08:06:00,57.4,53.9,29.76,NNE,22,2.0,6.0,88,0.00,,,0.00,VWS V14.01,2013-06-23 15:06:00,
2013-06-23 08:11:00,57.7,54.2,29.76,SE,135,0.9,1.3,88,0.00,,,0.00,VWS V14.01,2013-06-23 15:11:00,
2013-06-23 08:17:00,57.7,53.9,29.76,ENE,68,3.1,3.6,87,0.00,,,0.00,VWS V14.01,2013-06-23 15:17:00,
2013-06-23 08:22:00,57.6,53.7,29.76,ESE,112,1.1,1.1,87,0.00,,,0.00,VWS V14.01,2013-06-23 15:22:00,
2013-06-23 08:27:00,57.6,53.7,29.76,WSW,248,1.3,2.2,87,0.00,,,0.00,VWS V14.01,2013-06-23 15:27:00,
2013-06-23 08:32:00,57.4,53.2,29.76,ENE,68,0.0,0.9,86,0.00,,,0.00,VWS V14.01,2013-06-23 15:32:00,
2013-06-23 08:37:00,57.2,53.1,29.76,West,270,3.4,3.4,86,0.00,,,0.00,VWS V14.01,2013-06-23 15:37:00,
2013-06-23 08:42:00,57.2,53.1,29.76,SSW,202,2.5,2.7,86,0.00,,,0.00,VWS V14.01,2013-06-23 15:42:00,
2013-06-23 08:47:00,57.0,53.2,29.76,SSW,202,2.2,2.7,87,0.00,,,0.00,VWS V14.01,2013-06-23 15:47:00,
2013-06-23 08:52:00,56.8,53.0,29.76,SSW,202,2.7,3.6,87,0.00,,,0.00,VWS V14.01,2013-06-23 15:52:00,
2013-06-23 08:58:00,56.8,53.0,29.76,SSE,158,2.0,3.6,87,0.00,,,0.00,VWS V14.01,2013-06-23 15:58:00,
2013-06-23 09:03:00,56.8,53.0,29.76,NNW,338,3.8,4.3,87,0.00,,,0.00,VWS V14.01,2013-06-23 16:03:00,
2013-06-23 09:09:00,56.8,53.3,29.76,West,270,2.7,5.6,88,0.00,,,0.00,VWS V14.01,2013-06-23 16:09:00,
2013-06-23 09:14:00,56.8,53.3,29.76,WNW,292,2.9,2.9,88,0.00,,,0.00,VWS V14.01,2013-06-23 16:14:00,
2013-06-23 09:19:00,57.2,54.0,29.76,WSW,248,6.5,6.5,89,0.00,,,0.00,VWS V14.01,2013-06-23 16:19:00,
2013-06-23 09:24:00,57.2,54.0,29.76,SSE,158,1.6,1.6,89,0.00,,,0.00,VWS V14.01,2013-06-23 16:24:00,
2013-06-23 09:29:00,57.4,54.2,29.76,South,180,2.2,2.7,89,0.00,,,0.00,VWS V14.01,2013-06-23 16:29:00,
2013-06-23 09:35:00,57.7,54.2,29.79,SSW,202,2.2,4.7,88,0.00,,,0.00,VWS V14.01,2013-06-23 16:35:00,
2013-06-23 09:40:00,57.7,54.2,29.79,WNW,292,2.9,3.6,88,0.00,,,0.00,VWS V14.01,2013-06-23 16:40:00,
2013-06-23 09:45:00,57.6,53.7,29.79,ENE,68,2.9,6.5,87,0.00,,,0.00,VWS V14.01,2013-06-23 16:45:00,
2013-06-23 09:50:00,57.6,53.7,29.76,SSW,202,2.0,6.0,87,0.00,,,0.00,VWS V14.01,2013-06-23 16:50:00,
2013-06-23 09:56:00,57.9,54.1,29.76,SSE,158,1.1,1.6,87,0.00,,,0.00,VWS V14.01,2013-06-23 16:56:00,
2013-06-23 09:58:00,57.9,53.8,29.76,West,270,2.7,3.6,86,0.00,,,0.00,VWS V14.01,2013-06-23 16:58:00,
2013-06-23 09:59:00,57.9,53.8,29.76,SSW,202,4.3,4.3,86,0.00,,,0.00,VWS V14.01,2013-06-23 16:59:00,
2013-06-23 10:00:00,57.9,53.8,29.76,SSW,202,2.5,4.3,86,0.00,,,0.00,VWS V14.01,2013-06-23 17:00:00,
2013-06-23 10:06:00,58.3,54.1,29.79,SW,225,2.7,4.0,86,0.00,,,0.00,VWS V14.01,2013-06-23 17:06:00,
2013-06-23 10:11:00,58.5,54.0,29.79,South,180,2.5,2.5,85,0.00,,,0.00,VWS V14.01,2013-06-23 17:11:00,
2013-06-23 10:16:00,58.8,54.0,29.79,SSE,158,1.6,1.6,84,0.00,,,0.00,VWS V14.01,2013-06-23 17:16:00,
2013-06-23 10:21:00,59.4,54.2,29.76,SSW,202,1.6,2.0,83,0.00,,,0.00,VWS V14.01,2013-06-23 17:21:00,
2013-06-23 10:26:00,59.5,54.0,29.76,South,180,1.3,1.3,82,0.00,,,0.00,VWS V14.01,2013-06-23 17:26:00,
2013-06-23 10:31:00,59.9,54.1,29.76,WSW,248,0.0,0.9,81,0.00,,,0.00,VWS V14.01,2013-06-23 17:31:00,
2013-06-23 10:36:00,60.3,54.1,29.79,SSW,202,2.0,2.0,80,0.00,,,0.00,VWS V14.01,2013-06-23 17:36:00,
2013-06-23 10:41:00,60.6,53.7,29.79,East,90,2.2,2.2,78,0.00,,,0.00,VWS V14.01,2013-06-23 17:41:00,
2013-06-23 10:46:00,60.6,53.0,29.79,NE,45,1.6,1.6,76,0.00,,,0.00,VWS V14.01,2013-06-23 17:46:00,
2013-06-23 10:51:00,61.0,53.0,29.76,SE,135,1.3,1.3,75,0.00,,,0.00,VWS V14.01,2013-06-23 17:51:00,
2013-06-23 10:56:00,61.3,53.0,29.76,East,90,2.0,2.0,74,0.00,,,0.00,VWS V14.01,2013-06-23 17:56:00,
2013-06-23 11:01:00,61.5,52.8,29.76,ESE,112,0.9,2.0,73,0.00,,,0.00,VWS V14.01,2013-06-23 18:01:00,
2013-06-23 11:06:00,61.5,52.4,29.79,SW,225,1.1,2.0,72,0.00,,,0.00,VWS V14.01,2013-06-23 18:06:00,
2013-06-23 11:11:00,61.5,52.4,29.79,South,180,1.6,3.4,72,0.00,,,0.00,VWS V14.01,2013-06-23 18:11:00,
2013-06-23 11:17:00,60.6,51.6,29.76,WSW,248,2.7,4.0,72,0.00,,,0.00,VWS V14.01,2013-06-23 18:17:00,
2013-06-23 11:22:00,60.3,52.0,29.76,SSW,202,1.1,4.0,74,0.00,,,0.00,VWS V14.01,2013-06-23 18:22:00,
2013-06-23 11:27:00,60.1,51.8,29.76,South,180,1.3,2.5,74,0.00,,,0.00,VWS V14.01,2013-06-23 18:27:00,
2013-06-23 11:32:00,59.9,52.3,29.79,SSE,158,2.7,2.7,76,0.00,,,0.00,VWS V14.01,2013-06-23 18:32:00,
2013-06-23 11:37:00,59.9,52.7,29.79,SSW,202,2.7,2.7,77,0.00,,,0.00,VWS V14.01,2013-06-23 18:37:00,
2013-06-23 11:42:00,59.7,52.9,29.79,WSW,248,1.1,1.1,78,0.00,,,0.00,VWS V14.01,2013-06-23 18:42:00,
2013-06-23 11:48:00,59.7,53.2,29.79,SSW,202,4.0,4.0,79,0.00,,,0.00,VWS V14.01,2013-06-23 18:48:00,
2013-06-23 11:53:00,59.7,53.5,29.79,SSW,202,4.3,4.3,80,0.00,,,0.00,VWS V14.01,2013-06-23 18:53:00,
2013-06-23 11:58:00,59.7,53.9,29.79,SSW,202,2.7,2.9,81,0.00,,,0.00,VWS V14.01,2013-06-23 18:58:00,
2013-06-23 12:03:00,59.9,54.4,29.79,WNW,292,0.0,0.0,82,0.00,,,0.00,VWS V14.01,2013-06-23 19:03:00,
2013-06-23 12:08:00,59.9,54.7,29.76,WSW,248,3.6,3.6,83,0.00,,,0.00,VWS V14.01,2013-06-23 19:08:00,
2013-06-23 12:13:00,59.7,54.6,29.76,ESE,112,2.5,2.5,83,0.00,,,0.00,VWS V14.01,2013-06-23 19:13:00,
2013-06-23 12:18:00,59.7,54.9,29.79,NE,45,1.3,2.5,84,0.00,,,0.00,VWS V14.01,2013-06-23 19:18:00,
2013-06-23 12:23:00,59.7,54.9,29.79,SSW,202,3.4,4.0,84,0.00,,,0.00,VWS V14.01,2013-06-23 19:23:00,
2013-06-23 12:28:00,59.7,54.9,29.79,SSW,202,0.9,2.2,84,0.00,,,0.00,VWS V14.01,2013-06-23 19:28:00,
2013-06-23 12:33:00,59.7,54.9,29.76,SSW,202,6.0,8.1,84,0.00,,,0.00,VWS V14.01,2013-06-23 19:33:00,
2013-06-23 12:38:00,59.7,54.9,29.76,SSE,158,2.5,3.4,84,0.00,,,0.00,VWS V14.01,2013-06-23 19:38:00,
2013-06-23 12:43:00,60.1,55.6,29.76,SSW,202,0.0,1.3,85,0.00,,,0.00,VWS V14.01,2013-06-23 19:43:00,
2013-06-23 12:48:00,60.6,56.1,29.79,ENE,68,1.3,1.3,85,0.00,,,0.00,VWS V14.01,2013-06-23 19:48:00,
2013-06-23 12:53:00,60.8,55.9,29.79,North,0,1.1,1.3,84,0.00,,,0.00,VWS V14.01,2013-06-23 19:53:00,
2013-06-23 12:59:00,61.0,56.1,29.79,SSE,158,0.0,0.0,84,0.00,,,0.00,VWS V14.01,2013-06-23 19:59:00,
2013-06-23 13:04:00,61.3,56.1,29.76,WNW,292,1.1,1.1,83,0.00,,,0.00,VWS V14.01,2013-06-23 20:04:00,
2013-06-23 13:09:00,61.2,55.6,29.76,SSW,202,1.1,2.9,82,0.00,,,0.00,VWS V14.01,2013-06-23 20:09:00,
2013-06-23 13:14:00,61.3,55.8,29.76,SSE,158,1.6,3.1,82,0.00,,,0.00,VWS V14.01,2013-06-23 20:14:00,
2013-06-23 13:19:00,61.5,56.0,29.76,SE,135,1.1,1.6,82,0.00,,,0.00,VWS V14.01,2013-06-23 20:19:00,
2013-06-23 13:24:00,61.7,55.8,29.76,ESE,112,0.9,1.1,81,0.00,,,0.00,VWS V14.01,2013-06-23 20:24:00,
2013-06-23 13:29:00,62.2,56.3,29.76,SSW,202,2.5,2.5,81,0.00,,,0.00,VWS V14.01,2013-06-23 20:29:00,
2013-06-23 13:34:00,62.6,56.3,29.76,WSW,248,2.9,2.9,80,0.00,,,0.00,VWS V14.01,2013-06-23 20:34:00,
2013-06-23 13:40:00,62.6,56.3,29.76,SSW,202,5.8,5.8,80,0.00,,,0.00,VWS V14.01,2013-06-23 20:40:00,
2013-06-23 13:45:00,62.6,56.3,29.76,SSW,202,1.6,4.3,80,0.00,,,0.00,VWS V14.01,2013-06-23 20:45:00,
2013-06-23 13:50:00,62.6,56.3,29.76,SE,135,0.9,2.9,80,0.00,,,0.00,VWS V14.01,2013-06-23 20:50:00,
2013-06-23 13:55:00,62.8,56.5,29.76,NNE,22,2.5,2.5,80,0.00,,,0.00,VWS V14.01,2013-06-23 20:55:00,
2013-06-23 14:00:00,63.0,56.3,29.76,NNE,22,0.0,1.6,79,0.00,,,0.00,VWS V14.01,2013-06-23 21:00:00,
2013-06-23 14:05:00,63.1,56.2,29.76,East,90,0.9,1.3,78,0.00,,,0.00,VWS V14.01,2013-06-23 21:05:00,
2013-06-23 14:10:00,63.9,56.5,29.76,East,90,0.0,0.0,77,0.00,,,0.00,VWS V14.01,2013-06-23 21:10:00,
2013-06-23 14:15:00,64.2,56.1,29.76,SW,225,1.6,4.3,75,0.00,,,0.00,VWS V14.01,2013-06-23 21:15:00,
2013-06-23 14:20:00,64.2,55.8,29.76,WNW,292,1.6,4.3,74,0.00,,,0.00,VWS V14.01,2013-06-23 21:20:00,
2013-06-23 14:25:00,64.6,55.7,29.76,WSW,248,2.2,3.1,73,0.00,,,0.00,VWS V14.01,2013-06-23 21:25:00,
2013-06-23 14:31:00,64.9,55.7,29.76,WSW,248,3.6,3.6,72,0.00,,,0.00,VWS V14.01,2013-06-23 21:31:00,
2013-06-23 14:36:00,65.3,56.0,29.76,West,270,2.5,2.9,72,0.00,,,0.00,VWS V14.01,2013-06-23 21:36:00,
2013-06-23 14:41:00,65.5,55.8,29.76,SW,225,2.9,4.0,71,0.00,,,0.00,VWS V14.01,2013-06-23 21:41:00,
2013-06-23 14:46:00,65.5,55.8,29.76,South,180,1.3,2.0,71,0.00,,,0.00,VWS V14.01,2013-06-23 21:46:00,
2013-06-23 14:51:00,65.5,55.8,29.76,WNW,292,1.3,4.3,71,0.00,,,0.00,VWS V14.01,2013-06-23 21:51:00,
2013-06-23 14:57:00,64.9,55.3,29.76,SW,225,4.7,4.7,71,0.00,,,0.00,VWS V14.01,2013-06-23 21:57:00,
2013-06-23 15:02:00,63.9,55.0,29.76,SW,225,2.9,4.7,73,0.00,,,0.00,VWS V14.01,2013-06-23 22:02:00,
2013-06-23 15:07:00,63.5,55.4,29.76,South,180,3.8,3.8,75,0.00,,,0.00,VWS V14.01,2013-06-23 22:07:00,
2013-06-23 15:12:00,63.1,55.5,29.76,NNE,22,2.5,3.4,76,0.00,,,0.00,VWS V14.01,2013-06-23 22:12:00,
2013-06-23 15:17:00,63.1,55.8,29.76,SSW,202,5.4,5.4,77,0.00,,,0.00,VWS V14.01,2013-06-23 22:17:00,
2013-06-23 15:22:00,63.0,56.0,29.76,SSW,202,5.8,5.8,78,0.00,,,0.00,VWS V14.01,2013-06-23 22:22:00,
2013-06-23 15:27:00,63.0,56.3,29.76,SSW,202,3.1,5.4,79,0.00,,,0.00,VWS V14.01,2013-06-23 22:27:00,
2013-06-23 15:33:00,63.1,56.5,29.76,SSW,202,2.7,2.9,79,0.00,,,0.00,VWS V14.01,2013-06-23 22:33:00,
2013-06-23 15:38:00,63.5,56.5,29.76,West,270,2.0,2.7,78,0.00,,,0.00,VWS V14.01,2013-06-23 22:38:00,
2013-06-23 15:43:00,63.7,56.0,29.76,SSE,158,2.7,3.8,76,0.00,,,0.00,VWS V14.01,2013-06-23 22:43:00,
2013-06-23 15:48:00,63.9,55.8,29.76,West,270,1.6,3.4,75,0.00,,,0.00,VWS V14.01,2013-06-23 22:48:00,
2013-06-23 15:53:00,63.7,55.2,29.76,WSW,248,2.7,4.3,74,0.00,,,0.00,VWS V14.01,2013-06-23 22:53:00,
2013-06-23 15:58:00,63.7,54.9,29.76,WSW,248,2.9,5.4,73,0.00,,,0.00,VWS V14.01,2013-06-23 22:58:00,
2013-06-23 16:03:00,63.5,54.7,29.74,SSE,158,1.3,3.1,73,0.00,,,0.00,VWS V14.01,2013-06-23 23:03:00,
2013-06-23 16:08:00,63.7,54.9,29.74,ENE,68,1.3,3.8,73,0.00,,,0.00,VWS V14.01,2013-06-23 23:08:00,
2013-06-23 16:13:00,63.1,54.3,29.74,ESE,112,2.5,5.6,73,0.00,,,0.00,VWS V14.01,2013-06-23 23:13:00,
2013-06-23 16:19:00,63.1,54.7,29.74,SSW,202,2.0,2.7,74,0.00,,,0.00,VWS V14.01,2013-06-23 23:19:00,
2013-06-23 16:24:00,62.8,54.8,29.74,SW,225,4.7,5.8,75,0.00,,,0.00,VWS V14.01,2013-06-23 23:24:00,
2013-06-23 16:29:00,63.0,54.9,29.74,SSW,202,2.7,5.8,75,0.00,,,0.00,VWS V14.01,2013-06-23 23:29:00,
2013-06-23 16:34:00,63.1,55.5,29.74,NNW,338,2.5,3.4,76,0.00,,,0.00,VWS V14.01,2013-06-23 23:34:00,
2013-06-23 16:40:00,63.7,55.6,29.74,SSW,202,3.8,3.8,75,0.00,,,0.00,VWS V14.01,2013-06-23 23:40:00,
2013-06-23 16:45:00,64.0,55.6,29.74,NNW,338,2.5,2.9,74,0.00,,,0.00,VWS V14.01,2013-06-23 23:45:00,
2013-06-23 16:50:00,64.2,54.6,29.74,SSW,202,1.6,3.8,71,0.00,,,0.00,VWS V14.01,2013-06-23 23:50:00,
2013-06-23 16:55:00,63.9,53.9,29.74,SSW,202,1.6,4.3,70,0.00,,,0.00,VWS V14.01,2013-06-23 23:55:00,
2013-06-23 17:00:00,64.2,54.2,29.74,SSW,202,1.6,2.9,70,0.00,,,0.00,VWS V14.01,2013-06-24 00:00:00,
2013-06-23 17:05:00,64.6,54.2,29.76,South,180,2.5,3.4,69,0.00,,,0.00,VWS V14.01,2013-06-24 00:05:00,
2013-06-23 17:10:00,64.8,54.0,29.76,WSW,248,3.6,3.6,68,0.00,,,0.00,VWS V14.01,2013-06-24 00:10:00,
2013-06-23 17:15:00,64.6,53.8,29.76,NW,315,2.9,2.9,68,0.00,,,0.00,VWS V14.01,2013-06-24 00:15:00,
2013-06-23 17:21:00,64.6,53.8,29.76,NW,315,2.5,2.9,68,0.00,,,0.00,VWS V14.01,2013-06-24 00:21:00,
2013-06-23 17:26:00,64.4,53.6,29.76,SSW,202,2.5,2.5,68,0.00,,,0.00,VWS V14.01,2013-06-24 00:26:00,
2013-06-23 17:31:00,64.4,53.6,29.76,SW,225,3.4,3.4,68,0.00,,,0.00,VWS V14.01,2013-06-24 00:31:00,
2013-06-23 17:36:00,64.2,53.5,29.74,South,180,1.3,2.5,68,0.00,,,0.00,VWS V14.01,2013-06-24 00:36:00,
2013-06-23 17:41:00,64.0,53.3,29.74,NW,315,1.3,2.7,68,0.00,,,0.00,VWS V14.01,2013-06-24 00:41:00,
2013-06-23 17:46:00,64.2,53.8,29.74,South,180,2.5,2.5,69,0.00,,,0.00,VWS V14.01,2013-06-24 00:46:00,
2013-06-23 17:51:00,64.2,53.8,29.74,WSW,248,2.0,2.0,69,0.00,,,0.00,VWS V14.01,2013-06-24 00:51:00,
2013-06-23 17:56:00,64.2,53.5,29.74,WNW,292,2.9,2.9,68,0.00,,,0.00,VWS V14.01,2013-06-24 00:56:00,
2013-06-23 18:01:00,64.2,53.0,29.74,SW,225,3.6,3.6,67,0.00,,,0.00,VWS V14.01,2013-06-24 01:01:00,
2013-06-23 18:06:00,63.9,52.7,29.74,SSW,202,2.7,2.7,67,0.00,,,0.00,VWS V14.01,2013-06-24 01:06:00,
2013-06-23 18:12:00,63.9,52.7,29.74,NNE,22,2.7,2.9,67,0.00,,,0.00,VWS V14.01,2013-06-24 01:12:00,
2013-06-23 18:17:00,63.5,52.4,29.74,WNW,292,2.9,2.9,67,0.00,,,0.00,VWS V14.01,2013-06-24 01:17:00,
2013-06-23 18:22:00,63.5,52.4,29.74,WNW,292,1.6,2.2,67,0.00,,,0.00,VWS V14.01,2013-06-24 01:22:00,
2013-06-23 18:27:00,63.0,51.8,29.74,SW,225,7.4,7.4,67,0.00,,,0.00,VWS V14.01,2013-06-24 01:27:00,
2013-06-23 18:32:00,62.4,52.1,29.74,ENE,68,2.2,3.4,69,0.00,,,0.00,VWS V14.01,2013-06-24 01:32:00,
2013-06-23 18:38:00,62.8,52.9,29.74,NNW,338,1.1,2.2,70,0.00,,,0.00,VWS V14.01,2013-06-24 01:38:00,
2013-06-23 18:43:00,63.0,52.6,29.74,North,0,3.4,3.4,69,0.00,,,0.00,VWS V14.01,2013-06-24 01:43:00,
2013-06-23 18:48:00,63.1,52.8,29.74,North,0,2.2,2.5,69,0.00,,,0.00,VWS V14.01,2013-06-24 01:48:00,
2013-06-23 18:53:00,63.0,52.2,29.74,SSE,158,3.1,3.1,68,0.00,,,0.00,VWS V14.01,2013-06-24 01:53:00,
2013-06-23 18:58:00,63.0,52.2,29.74,NNW,338,2.0,2.2,68,0.00,,,0.00,VWS V14.01,2013-06-24 01:58:00,
2013-06-23 19:03:00,62.4,52.1,29.74,SSW,202,3.4,6.3,69,0.00,,,0.00,VWS V14.01,2013-06-24 02:03:00,
2013-06-23 19:09:00,62.1,52.2,29.74,WSW,248,3.4,3.4,70,0.00,,,0.00,VWS V14.01,2013-06-24 02:09:00,
2013-06-23 19:14:00,61.9,52.4,29.74,SSW,202,1.3,2.5,71,0.00,,,0.00,VWS V14.01,2013-06-24 02:14:00,
2013-06-23 19:19:00,61.9,52.4,29.74,SSW,202,1.3,2.2,71,0.00,,,0.00,VWS V14.01,2013-06-24 02:19:00,
2013-06-23 19:24:00,61.9,52.4,29.74,East,90,1.6,2.5,71,0.00,,,0.00,VWS V14.01,2013-06-24 02:24:00,
2013-06-23 19:29:00,61.9,52.4,29.74,WSW,248,1.3,1.3,71,0.00,,,0.00,VWS V14.01,2013-06-24 02:29:00,
2013-06-23 19:34:00,61.9,52.8,29.74,SW,225,2.9,2.9,72,0.00,,,0.00,VWS V14.01,2013-06-24 02:34:00,
2013-06-23 19:39:00,61.9,52.8,29.74,SSE,158,0.9,2.0,72,0.00,,,0.00,VWS V14.01,2013-06-24 02:39:00,
2013-06-23 19:44:00,61.7,52.6,29.74,North,0,3.4,4.0,72,0.00,,,0.00,VWS V14.01,2013-06-24 02:44:00,
2013-06-23 19:49:00,61.7,53.0,29.74,NE,45,1.6,1.6,73,0.00,,,0.00,VWS V14.01,2013-06-24 02:49:00,
2013-06-23 19:54:00,61.5,52.8,29.74,NNE,22,1.6,2.7,73,0.00,,,0.00,VWS V14.01,2013-06-24 02:54:00,
2013-06-23 19:59:00,61.5,53.2,29.74,East,90,0.9,2.0,74,0.00,,,0.00,VWS V14.01,2013-06-24 02:59:00,
2013-06-23 20:05:00,61.5,53.2,29.74,East,90,0.0,1.6,74,0.00,,,0.00,VWS V14.01,2013-06-24 03:05:00,
2013-06-23 20:10:00,61.7,53.3,29.74,WSW,248,1.1,1.1,74,0.00,,,0.00,VWS V14.01,2013-06-24 03:10:00,
2013-06-23 20:15:00,61.7,53.3,29.74,ENE,68,1.1,1.6,74,0.00,,,0.00,VWS V14.01,2013-06-24 03:15:00,
2013-06-23 20:20:00,61.7,53.0,29.74,SW,225,2.5,3.1,73,0.00,,,0.00,VWS V14.01,2013-06-24 03:20:00,
2013-06-23 20:25:00,61.5,53.2,29.74,SSW,202,2.5,4.9,74,0.00,,,0.00,VWS V14.01,2013-06-24 03:25:00,
2013-06-23 20:30:00,61.3,53.0,29.74,SW,225,3.4,3.6,74,0.00,,,0.00,VWS V14.01,2013-06-24 03:30:00,
2013-06-23 20:36:00,61.0,52.7,29.74,WSW,248,3.8,3.8,74,0.00,,,0.00,VWS V14.01,2013-06-24 03:36:00,
2013-06-23 20:41:00,60.6,53.0,29.74,WSW,248,2.2,3.8,76,0.00,,,0.00,VWS V14.01,2013-06-24 03:41:00,
2013-06-23 20:46:00,60.6,53.0,29.74,ENE,68,0.0,1.3,76,0.00,,,0.00,VWS V14.01,2013-06-24 03:46:00,
2013-06-23 20:51:00,60.4,53.2,29.74,East,90,0.0,0.0,77,0.00,,,0.00,VWS V14.01,2013-06-24 03:51:00,
2013-06-23 20:56:00,60.4,53.2,29.74,South,180,1.3,2.0,77,0.00,,,0.00,VWS V14.01,2013-06-24 03:56:00,
2013-06-23 21:01:00,60.4,53.6,29.74,NW,315,0.0,1.1,78,0.00,,,0.00,VWS V14.01,2013-06-24 04:01:00,
2013-06-23 21:02:00,60.4,53.6,29.74,South,180,3.1,3.1,78,0.00,,,0.00,VWS V14.01,2013-06-24 04:02:00,
2013-06-23 21:03:00,60.4,53.6,29.74,SSW,202,4.0,4.0,78,0.00,,,0.00,VWS V14.01,2013-06-24 04:03:00,
2013-06-23 21:08:00,60.3,53.4,29.74,South,180,0.0,0.0,78,0.00,,,0.00,VWS V14.01,2013-06-24 04:08:00,
2013-06-23 21:12:00,60.1,53.6,29.74,SE,135,0.0,1.6,79,0.00,,,0.00,VWS V14.01,2013-06-24 04:12:00,
2013-06-23 21:17:00,60.3,53.7,29.74,ENE,68,0.9,1.3,79,0.00,,,0.00,VWS V14.01,2013-06-24 04:17:00,
2013-06-23 21:23:00,60.4,54.2,29.74,SSW,202,1.3,2.2,80,0.00,,,0.00,VWS V14.01,2013-06-24 04:23:00,
2013-06-23 21:28:00,60.4,54.2,29.74,ENE,68,0.9,2.7,80,0.00,,,0.00,VWS V14.01,2013-06-24 04:28:00,
2013-06-23 21:33:00,60.3,54.1,29.74,SSW,202,2.7,2.7,80,0.00,,,0.00,VWS V14.01,2013-06-24 04:33:00,
2013-06-23 21:38:00,60.3,54.1,29.74,South,180,0.0,1.6,80,0.00,,,0.00,VWS V14.01,2013-06-24 04:38:00,
2013-06-23 21:43:00,60.3,54.1,29.74,NW,315,0.0,0.0,80,0.00,,,0.00,VWS V14.01,2013-06-24 04:43:00,
2013-06-23 21:48:00,60.4,54.2,29.74,WSW,248,0.0,1.1,80,0.00,,,0.00,VWS V14.01,2013-06-24 04:48:00,
2013-06-23 21:54:00,60.3,54.1,29.74,SSE,158,2.2,2.2,80,0.00,,,0.00,VWS V14.01,2013-06-24 04:54:00,
2013-06-23 21:59:00,60.4,54.6,29.74,SSE,158,2.0,2.7,81,0.00,,,0.00,VWS V14.01,2013-06-24 04:59:00,
2013-06-23 22:04:00,60.3,54.4,29.74,SSW,202,2.5,2.5,81,0.00,,,0.00,VWS V14.01,2013-06-24 05:04:00,
2013-06-23 22:09:00,60.3,54.4,29.74,SSE,158,1.3,2.2,81,0.00,,,0.00,VWS V14.01,2013-06-24 05:09:00,
2013-06-23 22:14:00,60.1,53.9,29.74,SW,225,2.9,2.9,80,0.00,,,0.00,VWS V14.01,2013-06-24 05:14:00,
2013-06-23 22:19:00,59.9,53.7,29.74,NW,315,2.2,2.2,80,0.00,,,0.00,VWS V14.01,2013-06-24 05:19:00,
2013-06-23 22:24:00,59.7,53.5,29.74,WSW,248,2.0,2.0,80,0.00,,,0.00,VWS V14.01,2013-06-24 05:24:00,
2013-06-23 22:30:00,59.5,53.4,29.74,NE,45,1.3,1.3,80,0.00,,,0.00,VWS V14.01,2013-06-24 05:30:00,
2013-06-23 22:35:00,59.5,53.4,29.74,South,180,4.9,4.9,80,0.00,,,0.00,VWS V14.01,2013-06-24 05:35:00,
2013-06-23 22:40:00,59.7,53.9,29.74,SSE,158,0.0,1.6,81,0.00,,,0.00,VWS V14.01,2013-06-24 05:40:00,
2013-06-23 22:46:00,59.7,53.9,29.74,WNW,292,1.3,3.6,81,0.00,,,0.00,VWS V14.01,2013-06-24 05:46:00,
2013-06-23 22:51:00,59.7,53.9,29.74,SSW,202,2.0,2.9,81,0.00,,,0.00,VWS V14.01,2013-06-24 05:51:00,
2013-06-23 22:57:00,59.7,53.9,29.74,SSW,202,1.6,3.6,81,0.00,,,0.00,VWS V14.01,2013-06-24 05:57:00,
2013-06-23 23:02:00,59.5,53.7,29.74,SW,225,2.5,2.9,81,0.00,,,0.00,VWS V14.01,2013-06-24 06:02:00,
2013-06-23 23:07:00,59.4,53.5,29.74,WSW,248,2.0,2.0,81,0.00,,,0.00,VWS V14.01,2013-06-24 06:07:00,
2013-06-23 23:13:00,59.2,53.0,29.74,SSW,202,1.3,2.9,80,0.00,,,0.00,VWS V14.01,2013-06-24 06:13:00,
2013-06-23 23:18:00,58.8,53.0,29.74,ESE,112,2.0,2.5,81,0.00,,,0.00,VWS V14.01,2013-06-24 06:18:00,
2013-06-23 23:23:00,58.5,52.7,29.74,WNW,292,2.7,2.7,81,0.00,,,0.00,VWS V14.01,2013-06-24 06:23:00,
2013-06-23 23:28:00,58.3,52.5,29.74,SW,225,1.1,2.5,81,0.00,,,0.00,VWS V14.01,2013-06-24 06:28:00,
2013-06-23 23:34:00,58.1,52.3,29.74,SSW,202,1.6,1.6,81,0.00,,,0.00,VWS V14.01,2013-06-24 06:34:00,
2013-06-23 23:40:00,58.1,52.6,29.74,WSW,248,2.7,2.7,82,0.00,,,0.00,VWS V14.01,2013-06-24 06:40:00,
2013-06-23 23:45:00,57.9,52.5,29.74,NW,315,2.9,3.8,82,0.00,,,0.00,VWS V14.01,2013-06-24 06:45:00,
2013-06-23 23:50:00,57.6,52.4,29.74,NNE,22,2.7,4.0,83,0.00,,,0.00,VWS V14.01,2013-06-24 06:50:00,
2013-06-23 23:55:00,57.2,52.1,29.74,SW,225,2.0,2.9,83,0.00,,,0.00,VWS V14.01,2013-06-24 06:55:00,